Flag for Germany Weather past 2 weeks in Weil am Rhein, Baden-Württemberg, Germany

Now
61 °F

Partly sunny.


Feels Like: 61 °F
Forecast: 41 / 68 °F
Wind: 1 mph from Northwest

Location: Bale-Mulhouse

Current Time: Aug 20, 2014 at 11:36:59 AM

Latest Report: Aug 20, 2014 at 11:00 AM


Visibility: 31 mi

Pressure: 30.03 "Hg

Humidity: 72%

Dew point: 52 °F

Location of Weil am RheinLocation

Historic Weather in Weil am Rhein — Graph

°F

Weil am Rhein temperature yesterday

Maximum temperature yesterday: 70 °F (at 2:00 PM)
Minimum temperature yesterday: 56 °F (at 6:00 AM)
Average temperature yesterday: 62 °F

Past Weeks' High & Low Weather Summary

 TemperatureHumidityPressure
High83 °F (Aug 8, 6:00 PM)98% (Aug 6, 7:00 AM)30.20 "Hg (Aug 6, 7:00 AM)
Low50 °F (Aug 17, 7:00 AM)44% (Aug 19, 5:00 PM)29.67 "Hg (Aug 13, 9:00 AM)
Average64 °F78%29.97 "Hg
* Reported Aug 5 10:00 AM — Aug 20 10:00 AM, Weil am Rhein, Weather by CustomWeather, © 2014

Note: Actual official high and low records may vary slightly from our data, if they occured in-between our weather recording intervals... More about our weather records

Advertising

Weil am Rhein weather history for previous 24 hours

 ConditionsComfort  
Time TempWeatherWind HumidityBarometerVisibility
10:00 AM
Aug 20
61 °FPartly sunny.2 mph75%30.03 "Hg31 mi
9:00 AM58 °FScattered clouds.1 mph78%30.04 "Hg31 mi
8:00 AM53 °FScattered clouds.1 mph91%30.05 "Hg31 mi
7:00 AM51 °FPartly sunny.2 mph93%30.05 "Hg31 mi
6:00 AM51 °FPassing clouds.No wind93%30.04 "Hg31 mi
5:00 AM51 °FPassing clouds.1 mph93%30.05 "Hg31 mi
4:00 AM51 °FPassing clouds.3 mph92%30.04 "Hg31 mi
3:00 AM54 °FCool.3 mph88%30.03 "Hg37 mi
2:00 AM56 °FOvercast.3 mph86%30.03 "Hg37 mi
1:00 AM58 °FOvercast.3 mph74%30.03 "Hg37 mi
12:00 AM59 °FPassing clouds.6 mph72%30.01 "Hg31 mi
11:00 PM
Aug 19
59 °FPassing clouds.5 mph78%30.01 "Hg31 mi
10:00 PM60 °FPassing clouds.5 mph77%29.99 "Hg31 mi
9:00 PM61 °FPassing clouds.5 mph73%29.97 "Hg31 mi
8:00 PM65 °FPartly sunny.7 mph51%29.95 "Hg31 mi
7:00 PM67 °FPartly sunny.9 mph48%29.93 "Hg31 mi
6:00 PM69 °FMild.12 mph45%29.93 "Hg28 mi
5:00 PM69 °FMild.10 mph44%29.92 "Hg31 mi
4:00 PM69 °FScattered clouds.13 mph45%29.92 "Hg31 mi
3:00 PM69 °FMild.12 mph51%29.92 "Hg28 mi
2:00 PM70 °FPartly sunny.9 mph46%29.91 "Hg31 mi
1:00 PM68 °FPartly sunny.8 mph55%29.92 "Hg31 mi
12:00 PM65 °FOvercast.8 mph55%29.93 "Hg31 mi
11:00 AM66 °FPartly sunny.8 mph61%29.93 "Hg31 mi
Weather by CustomWeather, © 2014

See weather overviewHow to use our weather pages